Hourly Data Report for October 03, 2015

All times are specified in Local Standard Time (LST). Add 1 hour to adjust for Daylight Saving Time where and when it is observed.

PANGNIRTUNG
NUNAVUT

66°08'36.300" N
65°42'40.500" W
22.60 m
2403049
71826
WXP

Download Data

Hourly Data (October 2015)
Hourly Data Report for October 3, 2015
Temp Definition
°C
Dew Point Temp Definition
°C
Rel Hum Definition
%
Wind Dir Definition
10's deg

Wind Spd Definition
km/h
Visibility Definition
km
Stn Press Definition
kPa
Hmdx Definition


Wind Chill Definition


Weather Definition


TIME
00:00 -0.5 -5.7 68 24 12   102.50   -4 LegendNANA
01:00 -1.4 -5.7 73 24 12   102.52   -5 LegendNANA
02:00 -1.8 -5.0 78 31 11   102.51   -6 LegendNANA
03:00 -2.3 -6.0 76 26 16   102.52   -7 LegendNANA
04:00 -1.9 -5.7 76 25 21   102.54   -8 LegendNANA
05:00 -2.0 -5.7 76 25 20   102.52   -8 LegendNANA
06:00 -2.3 -5.5 79 20 4   102.52   -4 LegendNANA
07:00 -1.3 -5.4 74 23 11   102.46   -5 LegendNANA
08:00 -1.9 -4.8 80 25 11   102.43   -6 LegendNANA
09:00 -1.1 -5.1 74 23 11   102.37   -5 LegendNANA
10:00 -0.9 -4.9 74 21 3   102.32   -2 LegendNANA
11:00 -1.1 -4.0 80 26 4   102.21   -2 LegendNANA
12:00 -1.4 -3.4 86 24 7   102.17   -4 LegendNANA
13:00 -1.6 -3.6 86 24 4   102.11   -3 LegendNANA
14:00 -1.5 -3.3 88 28 2   102.01   -2 LegendNANA
15:00 -1.8 -2.9 93 7 6   101.86   -4 LegendNANA
16:00 -1.2 -3.7 83 7 9   101.75   -4 LegendNANA
17:00 -1.7 -3.1 91 7 6   101.59   -4 LegendNANA
18:00 -2.0 -2.3 98 7 9   101.48   -5 LegendNANA
19:00 -1.9 -2.1 99 4 11   101.31   -6 LegendNANA
20:00 -0.3 -2.0 88 8 17   101.14   -5 LegendNANA
21:00 -0.4 -1.6 92 8 24   100.94   -6 LegendNANA
22:00 0.1 -2.1 86 7 23   100.83     LegendNANA
23:00 -0.9 -1.1 99 9 20   100.72   -6 LegendNANA

Notes on Data Quality.

Legend

  • E = Estimated
  • M = Missing
  • NA = Not Available
  • ‡ = Partner data that is not subject to review by the National Climate Archives
Date modified: